Wind_Speed
14 12 13 10 8 6 8 9 9 9 12 14 15 16 15 13 12 11 12 13 13 12 14 13 15 15 14 15 14 13 12 11 9 8 6 4 4 5 6 7 8 9 9
14 14 13 10 8 8 9 9 7 8 11 12 13 15 14 13 12 10 12 13 14 14 13 12 12 12 12 13 13 12 10 9 6 6 5 4 3 4 5 6 7 8 9
16 15 12 10 9 9 12 9 7 7 9 11 12 15 13 12 13 12 11 12 12 14 13 12 13 11 10 10 11 11 10 7 5 4 4 3 3 4 5 6 8 9 9
17 16 14 10 7 6 16 12 12 9 8 11 11 12 13 11 11 11 12 11 11 12 12 11 11 10 10 11 11 10 10 8 6 4 3 3 4 4 5 7 8 9 10
16 16 14 10 10 12 16 12 9 7 8 11 8 11 11 10 10 9 10 11 13 12 11 10 10 10 9 9 8 8 8 8 6 5 4 4 4 5 6 7 8 9 9
18 17 14 12 13 12 12 12 8 7 7 12 7 8 8 10 8 9 9 9 10 11 12 12 10 9 8 8 8 7 5 5 5 5 5 5 4 4 5 5 6 7 8
18 16 14 12 14 12 13 12 8 8 6 6 8 6 5 7 8 7 8 8 8 9 9 10 9 9 9 8 7 6 5 5 5 4 3 3 3 4 5 5 5 6 6
16 16 12 11 12 12 14 12 8 8 7 5 10 15 4 4 5 6 5 6 7 7 8 9 9 9 8 8 7 6 5 5 4 5 5 4 4 4 4 4 5 5 5
18 16 14 12 11 13 14 10 8 8 9 10 10 8 6 3 4 4 4 2 4 5 6 7 7 8 8 8 7 6 5 5 5 4 4 4 3 3 3 3 4 4 4
18 18 16 13 12 13 13 12 8 7 8 10 11 8 7 6 7 7 5 4 2 2 3 4 5 5 5 6 7 6 4 3 3 2 2 2 3 4 4 4 5 5 5
17 18 17 16 14 14 14 12 9 9 10 11 10 4 7 8 8 5 11 5 5 2 2 3 3 4 4 4 4 5 4 3 3 2 2 2 4 5 5 5 6 6 6
16 18 18 16 15 14 16 14 12 9 8 9 9 8 10 10 11 10 8 12 12 10 6 5 4 3 3 2 2 2 3 3 3 3 3 4 4 5 5 7 7 8 8
19 20 20 18 15 16 16 15 14 11 8 8 9 7 10 11 13 13 11 10 17 8 9 10 9 6 5 4 4 4 4 4 4 5 5 5 5 6 6 7 8 10 10
17 20 21 21 19 16 14 15 15 14 10 9 10 9 11 8 6 12 13 14 11 7 12 7 11 6 9 8 6 7 7 6 6 6 7 7 8 8 9 10 12 13 13
16 20 21 24 23 19 17 15 15 14 11 11 13 13 11 10 9 11 13 9 8 9 9 1 5 6 9 12 12 11 10 7 7 10 12 11 12 12 13 14 15 16 17
15 18 22 23 24 22 19 15 15 15 12 13 12 13 14 12 12 11 11 9 6 10 10 8 6 8 6 8 9 12 12 11 12 13 14 17 15 16 17 19 18 18 19
18 20 23 24 23 22 22 18 19 17 14 13 13 12 13 13 12 10 11 10 8 8 8 9 10 9 9 10 13 13 13 13 13 15 17 16 17 17 17 17 19 20 21
21 21 22 22 23 25 27 22 19 16 17 13 14 14 14 13 14 10 13 12 11 11 11 11 10 10 9 11 12 13 14 14 14 15 15 20 19 20 19 20 21 22 24
19 22 25 26 24 22 24 23 23 19 19 16 17 17 17 15 14 15 13 14 12 11 12 13 12 13 13 13 12 13 14 15 15 15 18 17 21 22 23 24 25 26 26
19 19 20 22 21 22 25 26 24 22 21 18 18 19 19 17 15 15 14 8 13 15 12 13 14 15 16 15 17 16 17 16 17 18 19 18 20 22 25 26 26 27 28
19 20 20 20 21 19 22 29 26 23 20 19 20 21 21 20 20 18 16 17 18 18 16 16 16 16 17 16 17 18 19 19 19 20 20 21 22 25 27 27 28 30 30
22 20 21 22 22 21 20 25 27 27 25 25 25 25 24 23 22 22 20 19 18 19 19 19 19 19 20 20 20 21 22 23 24 22 25 26 27 29 29 31 31 33 37
27 25 23 23 22 23 23 27 30 30 28 28 28 26 27 26 26 25 25 23 23 23 22 23 22 24 24 25 25 25 26 27 27 28 28 29 32 33 34 36 35 36 38
27 27 28 26 26 24 26 28 31 31 31 30 30 29 27 29 28 30 28 26 25 25 24 23 24 26 25 27 26 27 27 29 29 29 30 29 35 35 36 39 40 39 39
28 29 29 29 28 28 28 29 28 29 30 32 32 31 30 29 31 33 33 30 27 27 26 24 24 26 27 27 28 30 33 33 33 32 31 31 34 32 35 37 37 36 37
30 30 30 29 28 29 29 28 27 29 28 29 32 33 32 32 32 34 33 31 29 29 27 26 26 27 27 27 30 32 34 35 34 31 30 31 31 30 31 34 35 30 28
Wind_Direction
185 186 174 168 166 172 165 149 126 99 87 76 69 59 57 69 70 68 72 93 113 111 121 129 127 137 145 149 158 163 158 156 161 141 141 146 151 158 164 178 181 183 178
193 195 181 174 173 184 171 140 139 110 95 83 76 72 60 62 70 76 77 87 106 120 108 115 121 133 145 153 160 163 165 164 162 149 147 160 166 181 182 187 190 193 195
194 195 187 184 183 195 191 167 136 126 106 95 86 79 69 64 68 76 87 89 100 116 122 123 127 132 139 150 160 165 160 159 161 158 161 180 206 212 208 211 210 208 208
191 190 191 190 182 207 182 181 166 143 116 102 94 86 80 71 72 78 87 97 105 109 119 124 122 131 133 135 144 148 147 150 158 172 191 209 217 212 216 216 221 219 217
189 192 192 185 171 158 162 171 153 139 118 103 95 96 91 81 79 85 90 96 104 111 116 114 115 119 124 124 125 132 143 149 155 167 186 195 209 213 212 212 219 219 217
194 190 196 184 181 180 180 179 174 143 142 124 132 104 102 98 89 94 94 96 98 101 104 108 114 123 124 128 127 129 139 152 157 172 190 190 191 203 217 219 219 223 227
198 189 191 193 189 184 178 168 155 132 192 145 120 107 108 111 111 100 102 104 105 109 113 116 118 121 123 127 129 131 140 151 157 157 166 177 188 195 201 206 216 222 227
192 194 187 195 184 193 198 200 198 202 194 197 146 186 143 138 127 120 108 112 111 113 122 125 128 128 127 127 129 133 142 149 156 158 163 169 182 188 194 204 218 225 226
195 195 196 201 209 209 219 214 204 210 205 204 204 174 170 114 184 137 122 113 122 122 124 133 136 133 132 130 129 133 145 149 152 158 158 167 175 185 190 207 224 234 239
202 202 203 209 217 219 223 220 212 182 174 180 184 190 198 203 192 184 179 186 180 147 132 129 139 137 140 138 137 141 155 163 170 186 193 214 221 224 227 229 230 237 251
215 213 212 211 217 229 229 226 215 182 171 180 187 198 207 210 214 214 202 215 214 252 235 178 162 154 146 144 149 149 151 159 157 183 200 208 228 239 241 242 245 255 260
226 223 220 219 220 233 238 233 222 210 202 216 223 237 233 226 229 243 273 245 212 186 213 226 204 212 202 202 199 204 193 204 211 210 218 231 238 240 251 260 262 264 266
229 224 225 225 221 239 240 239 232 223 221 236 232 225 221 233 247 235 257 259 221 187 181 217 201 210 252 238 236 231 225 222 227 234 239 245 256 262 265 269 270 271 275
240 228 223 229 227 230 232 238 239 225 225 235 229 212 219 235 256 239 235 274 268 190 232 257 216 220 254 232 246 249 235 239 243 250 256 261 267 272 273 273 274 275 275
245 232 223 229 232 230 230 239 244 216 227 236 234 224 226 235 244 248 249 247 224 212 187 195 250 264 278 242 241 236 235 232 254 265 265 264 267 271 275 275 274 275 277
236 246 233 231 234 236 236 236 224 217 224 237 237 229 226 241 252 255 250 223 232 233 211 211 240 257 271 249 247 252 246 253 270 273 269 275 264 269 274 273 273 276 278
235 236 237 236 232 235 238 234 220 232 229 229 235 234 229 236 254 252 234 230 227 210 222 227 238 257 268 259 254 256 263 272 274 277 275 260 263 269 274 274 272 276 280
237 237 237 238 236 236 233 232 233 236 219 236 229 234 235 237 239 268 250 237 237 229 231 229 241 243 251 255 250 254 261 264 275 280 271 263 262 267 270 274 277 280 284
240 239 241 243 247 244 242 224 232 233 236 240 235 233 235 235 237 242 267 214 229 235 241 244 249 248 245 251 251 250 259 267 279 279 271 269 259 270 276 280 282 284 287
243 238 237 235 245 244 233 229 233 234 234 235 244 242 241 242 239 241 255 274 251 258 246 251 252 252 251 256 255 251 257 261 264 259 271 273 275 277 279 281 281 282 283
248 245 234 236 235 242 235 235 237 236 237 238 244 249 247 245 244 242 241 243 244 250 256 256 257 255 255 253 254 258 260 262 265 270 273 273 274 279 281 280 282 284 284
245 249 246 238 235 236 236 231 235 237 238 239 245 249 250 249 247 248 248 249 253 256 257 260 265 267 269 269 269 271 271 273 274 275 277 280 281 283 282 282 283 287 291
245 246 246 245 239 234 231 228 231 237 242 245 247 250 253 252 253 253 251 251 254 258 262 266 270 271 274 276 278 278 279 279 280 282 282 284 285 284 285 284 285 285 288
250 246 245 242 238 237 237 235 237 238 244 248 248 247 248 249 253 253 252 252 254 257 258 264 268 273 276 280 282 284 283 282 284 286 287 289 286 288 288 288 290 290 288
244 248 243 243 239 240 242 244 245 243 242 244 245 245 245 245 247 250 253 254 255 258 260 262 265 269 274 278 280 279 280 283 284 285 286 287 288 291 290 291 295 295 294
239 242 248 244 242 243 243 244 247 246 246 246 247 245 245 247 247 245 249 251 252 255 257 257 263 269 272 276 278 281 282 282 283 284 287 287 291 293 292 292 296 298 297
Height
5902 5904 5906 5907 5908 5910 5910 5911 5912 5912 5910 5908 5907 5906 5905 5905 5905 5904 5905 5903 5904 5906 5907 5910 5911 5913 5915 5918 5921 5923 5925 5927 5929 5930 5932 5934 5935 5937 5939 5941 5942 5943 5945
5902 5903 5905 5907 5908 5909 5909 5912 5913 5913 5912 5911 5910 5908 5908 5908 5908 5908 5907 5907 5907 5909 5910 5912 5914 5916 5918 5920 5922 5924 5926 5928 5930 5931 5933 5935 5937 5938 5940 5941 5943 5944 5945
5901 5903 5905 5907 5908 5909 5910 5911 5914 5914 5914 5913 5912 5910 5911 5911 5910 5911 5910 5910 5911 5912 5913 5915 5917 5918 5920 5921 5922 5925 5927 5929 5931 5932 5934 5936 5938 5940 5941 5942 5943 5945 5946
5900 5903 5905 5907 5909 5908 5911 5912 5913 5914 5914 5914 5914 5914 5914 5914 5914 5914 5914 5913 5913 5914 5916 5917 5918 5920 5921 5923 5925 5925 5926 5928 5931 5933 5935 5937 5939 5940 5942 5943 5945 5946 5946
5900 5903 5904 5907 5908 5909 5918 5913 5913 5914 5915 5916 5916 5916 5916 5917 5917 5917 5917 5917 5916 5917 5917 5919 5921 5922 5923 5923 5925 5926 5928 5929 5931 5933 5935 5936 5939 5940 5942 5943 5945 5947 5947
5900 5902 5904 5906 5908 5909 5911 5913 5914 5914 5915 5917 5918 5917 5919 5918 5920 5920 5920 5920 5919 5919 5919 5920 5921 5923 5923 5924 5926 5927 5929 5931 5932 5934 5936 5938 5939 5941 5942 5943 5945 5947 5948
5901 5904 5905 5906 5908 5909 5911 5913 5915 5916 5918 5917 5917 5920 5920 5920 5921 5921 5921 5922 5922 5922 5922 5922 5924 5925 5925 5926 5928 5929 5931 5933 5934 5936 5937 5938 5940 5941 5942 5943 5945 5946 5947
5901 5903 5906 5907 5908 5909 5911 5913 5914 5915 5915 5917 5918 5923 5921 5922 5921 5922 5923 5924 5924 5924 5925 5925 5926 5927 5928 5928 5929 5931 5932 5934 5936 5937 5938 5939 5940 5941 5942 5944 5945 5946 5947
5901 5904 5905 5906 5908 5910 5912 5912 5912 5915 5915 5916 5918 5918 5921 5924 5923 5923 5923 5924 5925 5926 5926 5927 5928 5928 5929 5930 5931 5932 5934 5935 5937 5938 5938 5939 5940 5941 5943 5944 5945 5946 5947
5902 5904 5905 5906 5907 5910 5912 5912 5913 5913 5914 5916 5918 5919 5920 5922 5923 5923 5924 5925 5926 5927 5928 5928 5929 5930 5931 5931 5931 5932 5934 5935 5937 5938 5939 5940 5941 5942 5943 5944 5945 5946 5947
5902 5904 5905 5906 5907 5909 5911 5913 5913 5914 5915 5917 5918 5919 5920 5921 5922 5923 5917 5926 5927 5928 5929 5929 5929 5930 5931 5933 5933 5934 5934 5936 5936 5937 5939 5940 5941 5943 5944 5945 5946 5947 5947
5901 5903 5905 5906 5908 5909 5910 5911 5913 5915 5915 5916 5917 5919 5920 5920 5921 5923 5920 5922 5921 5922 5929 5931 5931 5932 5932 5933 5933 5934 5935 5936 5937 5938 5939 5940 5941 5942 5944 5945 5946 5946 5947
5898 5900 5902 5905 5907 5908 5909 5910 5913 5914 5914 5915 5916 5917 5919 5919 5920 5922 5922 5922 5905 5923 5923 5928 5926 5930 5932 5933 5933 5934 5935 5936 5937 5938 5939 5939 5941 5942 5943 5944 5945 5945 5946
5896 5897 5899 5902 5904 5907 5907 5909 5910 5912 5913 5913 5915 5916 5918 5919 5918 5920 5923 5921 5922 5927 5927 5922 5928 5927 5931 5931 5932 5934 5934 5936 5936 5937 5938 5939 5940 5941 5942 5942 5943 5944 5944
5894 5895 5896 5899 5901 5904 5905 5906 5907 5910 5911 5912 5913 5915 5916 5918 5918 5918 5920 5923 5923 5926 5924 5909 5926 5929 5929 5929 5931 5932 5933 5934 5935 5936 5937 5938 5938 5939 5940 5940 5941 5941 5942
5891 5894 5894 5896 5898 5901 5902 5903 5905 5907 5909 5911 5912 5913 5914 5916 5916 5916 5916 5917 5919 5919 5922 5923 5927 5927 5928 5929 5930 5931 5933 5933 5934 5934 5934 5935 5936 5937 5937 5938 5938 5938 5938
5888 5889 5891 5893 5895 5898 5899 5901 5903 5904 5907 5909 5911 5911 5913 5914 5915 5915 5916 5916 5917 5918 5919 5921 5924 5924 5926 5927 5928 5930 5931 5931 5932 5931 5931 5931 5933 5934 5934 5934 5934 5934 5934
5883 5885 5887 5889 5891 5893 5894 5896 5900 5902 5903 5906 5907 5910 5911 5912 5913 5914 5915 5916 5917 5918 5919 5921 5922 5923 5923 5924 5925 5927 5928 5928 5929 5928 5929 5929 5929 5930 5930 5930 5929 5929 5928
5879 5881 5883 5885 5886 5887 5888 5891 5895 5897 5900 5902 5903 5906 5908 5909 5911 5912 5911 5913 5915 5917 5918 5920 5921 5921 5922 5922 5923 5923 5924 5925 5925 5925 5926 5925 5925 5925 5925 5925 5924 5923 5922
5876 5877 5878 5880 5882 5883 5885 5887 5891 5893 5895 5897 5900 5902 5904 5905 5907 5908 5909 5911 5913 5914 5915 5917 5918 5919 5919 5920 5920 5920 5921 5921 5922 5922 5921 5921 5920 5920 5919 5919 5918 5917 5915
5872 5872 5873 5875 5878 5879 5880 5883 5886 5888 5890 5892 5894 5897 5899 5900 5902 5903 5905 5907 5909 5911 5911 5913 5915 5915 5916 5916 5916 5917 5917 5916 5917 5916 5916 5915 5916 5914 5913 5913 5912 5910 5909
5866 5868 5870 5871 5872 5874 5875 5877 5881 5883 5885 5887 5890 5892 5894 5895 5897 5898 5899 5901 5904 5906 5907 5908 5910 5911 5911 5911 5912 5912 5912 5912 5912 5912 5910 5910 5909 5908 5908 5906 5906 5904 5900
5860 5862 5863 5866 5868 5869 5870 5871 5873 5877 5879 5881 5883 5885 5888 5890 5892 5894 5895 5896 5898 5899 5901 5902 5904 5904 5906 5906 5906 5906 5906 5905 5905 5904 5904 5903 5901 5900 5899 5897 5898 5897 5894
5853 5855 5857 5859 5861 5862 5863 5865 5867 5869 5873 5875 5877 5879 5882 5884 5886 5887 5889 5890 5892 5893 5894 5896 5898 5898 5899 5900 5901 5900 5900 5899 5899 5898 5896 5897 5893 5892 5891 5888 5887 5887 5885
5845 5847 5849 5852 5855 5856 5857 5859 5861 5863 5865 5867 5869 5871 5873 5876 5877 5880 5882 5884 5885 5886 5887 5889 5890 5891 5891 5893 5894 5894 5893 5893 5892 5890 5889 5887 5886 5886 5883 5879 5878 5877 5874
5836 5838 5842 5845 5848 5850 5851 5852 5854 5856 5859 5860 5861 5863 5865 5867 5870 5871 5873 5875 5878 5878 5879 5881 5883 5884 5885 5885 5885 5886 5885 5884 5884 5884 5881 5880 5879 5878 5877 5872 5868 5869 5867